TimePDT,TemperatureF,Dew PointF,Humidity,Sea Level PressureIn,VisibilityMPH,Wind Direction,Wind SpeedMPH,Gust SpeedMPH,PrecipitationIn,Events,Conditions,WindDirDegrees,DateUTC
12:53 AM,45.0,33.1,63,30.20,10.0,Calm,Calm,-,N/A,,Clear,0,2013-05-20 07:53:00
1:53 AM,43.0,33.1,68,30.22,10.0,WNW,5.8,-,N/A,,Clear,290,2013-05-20 08:53:00
2:53 AM,41.0,37.0,86,30.23,10.0,Calm,Calm,-,N/A,,Clear,0,2013-05-20 09:53:00
5:53 AM,39.9,30.9,70,30.21,10.0,NE,6.9,-,N/A,,Clear,40,2013-05-20 12:53:00
7:53 AM,50.0,36.0,59,30.19,10.0,ENE,4.6,-,N/A,,Clear,70,2013-05-20 14:53:00
8:53 AM,54.0,33.1,45,30.20,10.0,East,3.5,-,N/A,,Clear,80,2013-05-20 15:53:00
9:53 AM,57.0,33.1,40,30.17,10.0,Calm,Calm,-,N/A,,Clear,0,2013-05-20 16:53:00
10:53 AM,60.1,34.0,38,30.15,10.0,SSE,8.1,-,N/A,,Clear,150,2013-05-20 17:53:00
11:53 AM,62.1,34.0,35,30.15,10.0,South,4.6,-,N/A,,Clear,170,2013-05-20 18:53:00
12:53 PM,63.0,34.0,34,30.12,10.0,Calm,Calm,-,N/A,,Clear,0,2013-05-20 19:53:00
1:53 PM,66.9,28.9,24,30.09,10.0,Variable,3.5,-,N/A,,Clear,0,2013-05-20 20:53:00
2:53 PM,70.0,28.0,21,30.06,10.0,Variable,4.6,-,N/A,,Clear,0,2013-05-20 21:53:00
3:53 PM,69.1,28.0,22,30.05,10.0,West,4.6,-,N/A,,Clear,260,2013-05-20 22:53:00
4:53 PM,71.1,25.0,18,30.01,10.0,Calm,Calm,-,N/A,,Clear,0,2013-05-20 23:53:00
5:53 PM,72.0,27.0,19,29.97,10.0,ESE,5.8,-,N/A,,Clear,110,2013-05-21 00:53:00
7:53 PM,66.0,25.0,21,29.92,10.0,West,6.9,-,N/A,,Clear,260,2013-05-21 02:53:00
8:53 PM,59.0,37.0,44,29.93,10.0,WNW,6.9,-,N/A,,Clear,290,2013-05-21 03:53:00
9:53 PM,55.9,36.0,47,29.92,10.0,West,4.6,-,N/A,,Clear,280,2013-05-21 04:53:00
10:53 PM,57.9,34.0,41,29.91,10.0,West,8.1,-,N/A,,Clear,280,2013-05-21 05:53:00
11:53 PM,52.0,39.0,61,29.91,10.0,South,3.5,-,N/A,,Clear,190,2013-05-21 06:53:00